Terminal Aerodrome Forecast
Issued by NWS

Home | Current Version | Previous Version | Text Only | Print | Product List | Glossary On
Versions: 1 2 3 4 5 6 7 8 9 10 11 12 13 14 15 16 17 18 19 20 21 22 23 24 25
000
FTUS46 KSEW 242328
TAFSEA
TAF
KSEA 242328Z 2500/2606 28005KT P6SM FEW045 SCT120 SCT200
     FM250300 VRB03KT P6SM BKN120 OVC200
     FM250900 VRB03KT P6SM SCT050 OVC100
     FM251400 VRB03KT P6SM SCT009 BKN050 OVC100
     FM251800 22005KT P6SM BKN015 OVC050 PROB30 2518/2524 -RA
     FM260000 VRB05KT P6SM BKN030 OVC050=

USA.gov is the U.S. government's official web portal to all federal, state and local government web resources and services.